Back to catalog

BREEZE-KM DEB

AlivePO
NORAD 41723·DEBRIS·🇷🇺 Russia

Launched Mar 31, 2015 from Plesetsk Cosmodrome

Loading…

Next Passes (next 24 hours)

TLE

FreshSource: Space-Track

Epoch: Sep 11, 2026, 18:54 UTC

1 41723U 15020L   26254.78804541  .00000176  00000-0  54258-3 0  9992
2 41723  82.4830  89.2091 0221009  15.8969 344.8932 12.92961640510521

Track BREEZE-KM DEB in real time with AllMySat

Download on the App Store